This is the latest recevied weather packets stored in our database for station/object JA0ZJX-13. If no packets are shown the sender has not sent any weather packets the latest 1 day(s).
| Time | Temp. | Humidity | Pressure | Rain* | Wind** | Luminosity | Snow |
|---|---|---|---|---|---|---|---|
| 1777995821 | 11.67° C | 68% | 1022.7 hPa | 0 mm | 4.02 m/s, 142° | 0 W/m² | - |
| 1777995211 | 11.67° C | 68% | 1022.8 hPa | 0 mm | 4.92 m/s, 157° | 0 W/m² | - |
| 1777994621 | 11.67° C | 68% | 1022.9 hPa | 0 mm | 4.02 m/s, 172° | 0 W/m² | - |
| 1777994009 | 11.67° C | 68% | 1022.8 hPa | 0 mm | 4.47 m/s, 157° | 0 W/m² | - |
| 1777993422 | 11.67° C | 67% | 1022.8 hPa | 0 mm | 4.47 m/s, 187° | 0 W/m² | - |
| 1777992810 | 12.22° C | 67% | 1022.7 hPa | 0 mm | 4.47 m/s, 158° | 0 W/m² | - |
| 1777992218 | 12.22° C | 67% | 1022.7 hPa | 0 mm | 4.92 m/s, 191° | 0 W/m² | - |
| 1777991610 | 12.22° C | 67% | 1022.7 hPa | 0 mm | 4.92 m/s, 153° | 0 W/m² | - |
| 1777991017 | 12.22° C | 67% | 1022.7 hPa | 0 mm | 4.02 m/s, 214° | 0 W/m² | - |
| 1777990406 | 12.22° C | 67% | 1022.7 hPa | 0 mm | 3.58 m/s, 223° | 0 W/m² | - |
| 1777989814 | 12.22° C | 67% | 1022.4 hPa | 0 mm | 3.13 m/s, 234° | 0 W/m² | - |
| 1777989207 | 12.22° C | 67% | 1022.3 hPa | 0 mm | 5.36 m/s, 174° | 0 W/m² | - |
| 1777988616 | 12.78° C | 68% | 1022.2 hPa | 0 mm | 5.81 m/s, 200° | 0 W/m² | - |
| 1777988004 | 12.78° C | 68% | 1022.3 hPa | 0 mm | 5.36 m/s, 225° | 0 W/m² | - |
| 1777987414 | 12.78° C | 68% | 1022.2 hPa | 0 mm | 4.92 m/s, 208° | 0 W/m² | - |
| 1777986808 | 12.78° C | 68% | 1022.2 hPa | 0 mm | 4.47 m/s, 213° | 0 W/m² | - |
| 1777986217 | 12.78° C | 67% | 1022.2 hPa | 0 mm | 4.92 m/s, 151° | 0 W/m² | - |
| 1777985605 | 13.33° C | 67% | 1022.2 hPa | 0 mm | 3.13 m/s, 159° | 0 W/m² | - |
| 1777985014 | 13.33° C | 67% | 1022.3 hPa | 0 mm | 4.02 m/s, 150° | 0 W/m² | - |
| 1777984409 | 13.89° C | 67% | 1022.2 hPa | 0 mm | 4.02 m/s, 155° | 0 W/m² | - |
| 1777983818 | 13.89° C | 67% | 1022.2 hPa | 0 mm | 3.13 m/s, 206° | 0 W/m² | - |
| 1777983207 | 13.89° C | 67% | 1022 hPa | 0 mm | 4.92 m/s, 207° | 0 W/m² | - |
| 1777982621 | 13.89° C | 66% | 1021.9 hPa | 0 mm | 3.13 m/s, 180° | 0 W/m² | - |
| 1777982009 | 14.44° C | 66% | 1021.6 hPa | 0 mm | 3.58 m/s, 138° | 0 W/m² | - |
| 1777981419 | 14.44° C | 66% | 1021.4 hPa | 0 mm | 3.58 m/s, 134° | 0 W/m² | - |
* Rain latest hour (hover to see other rain measurements)
** Current wind speed in m/s (hover to see current wind gust speed)